Simultaneous Nadir Overpasses (SNOs) Predictions

Prediction of SNOs between METOP-B and NOAA-19 Satellite Orbit:

Table of predicted SNOs for the next 14.0 days since TLE Epoch: 2/7/2020
Index Date (METOP-B) Time (METOP-B) Lat,Lon (METOP-B) SZA (METOP-B ) Date (NOAA-19) Time (NOAA-19) Lat,Lon (NOAA-19) SZA (NOAA-19 ) Distance(km) Time Diff (sec)
1 02/10/2020 09:19:15 79.79, 60.56 94.62 02/10/2020 09:18:15 79.80, 60.47 94.61 2.01 60
2 02/10/2020 10:09:57 -79.77,-132.23 85.42 02/10/2020 10:09:16 -79.79,-132.27 85.41 2.48 41
3 02/10/2020 11:00:37 79.77, 35.11 94.58 02/10/2020 11:00:15 79.78, 35.18 94.58 1.34 22
4 02/10/2020 11:51:19 -79.76,-157.67 85.46 02/10/2020 11:51:16 -79.78,-157.57 85.44 2.75 3
5 02/10/2020 12:41:59 79.76, 9.66 94.54 02/10/2020 12:42:16 79.79, 9.58 94.56 3.24 17
6 02/10/2020 13:32:40 -79.78, 177.16 85.45 02/10/2020 13:33:16 -79.76, 177.14 85.47 2.45 36
7 02/10/2020 14:23:21 79.75, -15.79 94.50 02/10/2020 14:24:16 79.77, -15.72 94.53 2.53 55
8 02/10/2020 15:14:02 -79.77, 151.71 85.49 02/10/2020 15:15:17 -79.77, 151.55 85.49 3.26 75
9 02/21/2020 09:42:02 -79.82,-124.81 89.11 02/21/2020 09:40:57 -79.80,-124.81 89.14 2.30 65
10 02/21/2020 10:32:42 79.81, 42.47 90.88 02/21/2020 10:31:54 79.80, 42.41 90.85 1.76 48
11 02/21/2020 11:23:24 -79.81,-150.26 89.15 02/21/2020 11:22:58 -79.81,-150.41 89.16 2.87 26
12 02/21/2020 12:14:04 79.80, 17.02 90.83 02/21/2020 12:13:54 79.79, 17.11 90.82 2.51 10
13 02/21/2020 13:04:46 -79.80,-175.71 89.19 02/21/2020 13:04:58 -79.79,-175.70 89.20 0.68 12
14 02/21/2020 13:55:26 79.79, -8.43 90.79 02/21/2020 13:55:55 79.80, -8.49 90.80 1.29 29
15 02/21/2020 14:46:08 -79.78, 158.84 89.24 02/21/2020 14:46:59 -79.80, 158.70 89.22 3.12 51




NCC Satellite Simultaneous Nadir Overpasses (SNOs) Prediction Service
